Tracking 30703 objects as of 14-Jun-2025
HD Live streaming from Space Station
objects crossing your sky now

STARLINK-4631

Track STARLINK-4631 now!
10-day predictions
STARLINK-4631 is classified as:


NORAD ID: 53786
Int'l Code: 2022-111P
Perigee: 438.5 km
Apogee: 439.8 km
Inclination: 53.2 °
Period: 93.2 minutes
Semi major axis: 6810 km
RCS: Unknown
Launch date: September 11, 2022
Source: United States (US)
Launch site: AIR FORCE EASTERN TEST RANGE (AFETR)
Your satellite tracking list
Your tracking list is empty




NASA's NSSDC Master Catalog

Two Line Element Set (TLE):
1 53786U 22111P   25165.00001157  .00268676  00000-0  54670-2 0  9998
2 53786  53.2181  22.5578 0000927  91.9491 351.9195 15.44774579152577
Source of the keplerian elements: AFSPC